カタログに戻る

GORIZONT 7

運用中通信GEO
NORAD 14160·PAYLOAD·🇷🇺 Russia

打ち上げ Jun 30, 1983 から Baikonur Cosmodrome

Loading…

TLE

最新Source: Space-Track

元期: Sep 14, 2026, 14:19 UTC

1 14160U 83066A   26257.59720110 -.00000111  00000-0  00000-0 0  9996
2 14160   9.1644 311.9923 0013364 345.5277  22.6331  0.98347987155638

AllMySatでGORIZONT 7をリアルタイム追跡

Download on the App Store